Location: Unspecified
(0.0000°N, 0.0000°E)
Time: 06:08:05
(UTC+00:00)

Picosat 3 - Visible Passes

Search period start: 08 June 2023 00:00
Search period end: 18 June 2023 00:00
Orbit: 701 x 740 km, 100.2° (Epoch: 07 June)

Date Brightness Start Highest point End Pass type
(mag) Time Alt. Az. Time Alt. Az. Time Alt. Az.
08 Jun ? 18:58:27 10° NE 19:02:11 22° ESE 19:02:22 22° ESE visible
08 Jun ? 20:36:14 10° NNW 20:39:47 20° WNW 20:41:37 17° WSW visible
09 Jun ? 19:45:27 10° NNE 19:50:20 89° SE 19:51:07 64° SSW visible
10 Jun ? 18:57:20 10° ENE 19:00:38 20° E 19:00:38 20° E visible
10 Jun ? 20:34:44 10° NNW 20:38:28 22° WNW 20:39:52 20° W visible
11 Jun ? 19:44:08 10° NNE 19:49:00 82° ESE 19:49:22 75° SSE visible
12 Jun ? 18:56:14 10° ENE 18:58:53 18° E 18:58:53 18° E visible
12 Jun ? 20:33:14 10° NNW 20:37:08 24° WNW 20:38:08 23° W visible
13 Jun ? 19:42:49 10° NNE 19:47:39 75° ESE 19:47:39 75° ESE visible
14 Jun ? 18:55:09 10° ENE 18:57:09 16° E 18:57:09 16° E visible
14 Jun ? 20:31:45 10° NNW 20:35:47 26° WNW 20:36:24 26° W visible
15 Jun ? 19:41:30 10° NNE 19:45:55 64° ENE 19:45:55 64° ENE visible
16 Jun ? 18:54:06 10° ENE 18:55:26 13° E 18:55:26 13° E visible
16 Jun ? 20:30:16 10° NNW 20:34:26 29° WNW 20:34:41 29° W visible
17 Jun ? 19:40:10 10° NNE 19:44:11 54° ENE 19:44:11 54° ENE visible
